VOE17R LFPO-LFSL

Flight info

Callsign VOE17R
Flight time 0h 43m
Altitude 19000
Route OLZOM J18 VEROS G54 CTX G28 LMG G36 MAKOX
Aircraft A319/M-SDE3FGHIRWY/LB1

Departure

Time 2026-05-07 16:34
Airport Paris-Orly Airport (LFPO)

Arrival

Time 2026-05-07 17:17
Airport Brive Souillac airport (LFSL)
Time Latitude Longitude Altitude Speed Heading
2026-05-07 16:22 48.72993 2.35707 294 ft 0 kts 188°
2026-05-07 16:25 48.73012 2.35711 301 ft 4 kts 188°
2026-05-07 16:25 48.73039 2.35718 301 ft 4 kts 189°
2026-05-07 16:26 48.73063 2.35724 300 ft 2 kts 189°
2026-05-07 16:26 48.73085 2.35729 300 ft 4 kts 208°
2026-05-07 16:26 48.73099 2.35751 300 ft 4 kts 237°
2026-05-07 16:26 48.73101 2.35757 300 ft 0 kts 237°
2026-05-07 16:29 48.73093 2.35737 301 ft 5 kts 237°
2026-05-07 16:29 48.73063 2.35666 298 ft 11 kts 237°
2026-05-07 16:29 48.73007 2.35553 295 ft 15 kts 218°
2026-05-07 16:29 48.72902 2.35537 295 ft 16 kts 163°
2026-05-07 16:30 48.72791 2.35585 297 ft 17 kts 165°
2026-05-07 16:30 48.72672 2.35635 297 ft 18 kts 165°
2026-05-07 16:30 48.72556 2.35684 298 ft 14 kts 164°
2026-05-07 16:30 48.72473 2.35692 297 ft 9 kts 216°
2026-05-07 16:31 48.72440 2.35622 297 ft 9 kts 212°
2026-05-07 16:31 48.72380 2.35631 299 ft 9 kts 164°
2026-05-07 16:31 48.72313 2.35633 300 ft 10 kts 202°
2026-05-07 16:31 48.72239 2.35600 296 ft 13 kts 177°
2026-05-07 16:32 48.72147 2.35633 296 ft 14 kts 166°
2026-05-07 16:32 48.72055 2.35700 296 ft 15 kts 137°
2026-05-07 16:32 48.71996 2.35837 297 ft 16 kts 120°
2026-05-07 16:32 48.71961 2.35965 297 ft 10 kts 86°
2026-05-07 16:33 48.71966 2.35994 297 ft 0 kts 74°
2026-05-07 16:33 48.71970 2.36016 297 ft 11 kts 74°
2026-05-07 16:33 48.72073 2.36576 302 ft 97 kts 75°
2026-05-07 16:33 48.72313 2.37879 365 ft 152 kts 75°
2026-05-07 16:34 48.72586 2.39386 1148 ft 146 kts 75°
2026-05-07 16:34 48.72854 2.40874 1928 ft 149 kts 74°
2026-05-07 16:34 48.73148 2.42475 2483 ft 168 kts 73°
2026-05-07 16:34 48.73491 2.44300 3009 ft 192 kts 73°
2026-05-07 16:35 48.73875 2.46344 3557 ft 216 kts 73°
2026-05-07 16:35 48.74194 2.48715 4166 ft 242 kts 83°
2026-05-07 16:35 48.74327 2.51356 4881 ft 262 kts 87°
2026-05-07 16:35 48.74235 2.54166 5868 ft 270 kts 104°
2026-05-07 16:36 48.73424 2.56711 6902 ft 275 kts 129°
2026-05-07 16:36 48.71912 2.58496 7935 ft 278 kts 157°
2026-05-07 16:36 48.70034 2.59044 8962 ft 281 kts 184°
2026-05-07 16:36 48.68134 2.58291 10014 ft 284 kts 202°
2026-05-07 16:37 48.66279 2.57147 10642 ft 302 kts 203°
2026-05-07 16:37 48.64248 2.55885 11037 ft 326 kts 203°
2026-05-07 16:37 48.62084 2.54546 11502 ft 343 kts 203°
2026-05-07 16:37 48.59865 2.53184 12269 ft 350 kts 203°
2026-05-07 16:38 48.57618 2.51811 13124 ft 354 kts 203°
2026-05-07 16:38 48.55306 2.50407 13968 ft 358 kts 203°
2026-05-07 16:38 48.52997 2.49011 14726 ft 362 kts 203°
2026-05-07 16:38 48.50665 2.47602 15469 ft 365 kts 203°
2026-05-07 16:39 48.48289 2.46165 16218 ft 369 kts 203°
2026-05-07 16:39 48.45905 2.44722 16968 ft 373 kts 203°
2026-05-07 16:39 48.43476 2.43250 17710 ft 377 kts 203°
2026-05-07 16:39 48.41011 2.41760 18431 ft 381 kts 204°
2026-05-07 16:40 48.38559 2.40282 19069 ft 385 kts 204°
2026-05-07 16:40 48.36059 2.38774 19728 ft 388 kts 204°
2026-05-07 16:40 48.33566 2.37273 20378 ft 391 kts 204°
2026-05-07 16:40 48.31018 2.35742 21013 ft 394 kts 203°
2026-05-07 16:41 48.28456 2.34202 21633 ft 398 kts 204°
2026-05-07 16:41 48.25877 2.32650 22234 ft 401 kts 204°
2026-05-07 16:41 48.23308 2.31104 22831 ft 404 kts 204°
2026-05-07 16:41 48.20681 2.29529 23419 ft 407 kts 203°
2026-05-07 16:42 48.18034 2.27953 23909 ft 410 kts 202°
2026-05-07 16:42 48.15273 2.26730 24369 ft 416 kts 193°
2026-05-07 16:42 48.12405 2.26215 24832 ft 421 kts 185°
2026-05-07 16:42 48.09457 2.26011 25305 ft 423 kts 185°
2026-05-07 16:43 48.06535 2.25801 25769 ft 426 kts 185°
2026-05-07 16:43 48.03548 2.25575 26233 ft 428 kts 185°
2026-05-07 16:43 48.00593 2.25345 26686 ft 431 kts 185°
2026-05-07 16:43 47.97579 2.25108 27133 ft 433 kts 185°
2026-05-07 16:44 47.94585 2.24869 27567 ft 436 kts 185°
2026-05-07 16:44 47.91528 2.24626 27996 ft 438 kts 185°
2026-05-07 16:44 47.88466 2.24382 28409 ft 441 kts 185°
2026-05-07 16:44 47.85425 2.24142 28815 ft 443 kts 185°
2026-05-07 16:45 47.82309 2.23900 29217 ft 446 kts 185°
2026-05-07 16:45 47.79227 2.23664 29597 ft 448 kts 185°
2026-05-07 16:45 47.76127 2.23421 29965 ft 450 kts 185°
2026-05-07 16:45 47.72984 2.23172 30357 ft 451 kts 186°
2026-05-07 16:46 47.70902 2.23008 30664 ft 450 kts 186°
2026-05-07 16:46 47.66739 2.22684 30981 ft 449 kts 186°
2026-05-07 16:46 47.64677 2.22523 31014 ft 445 kts 186°
2026-05-07 16:47 47.57526 2.21977 31015 ft 440 kts 186°
2026-05-07 16:47 47.51434 2.21509 31013 ft 439 kts 186°
2026-05-07 16:48 47.46347 2.21113 31015 ft 439 kts 186°
2026-05-07 16:48 47.40263 2.20641 31017 ft 439 kts 186°
2026-05-07 16:49 47.34276 2.19124 30998 ft 433 kts 201°
2026-05-07 16:49 47.28995 2.15112 31001 ft 425 kts 216°
2026-05-07 16:49 47.26597 2.12696 30996 ft 407 kts 216°
2026-05-07 16:50 47.24322 2.10430 30928 ft 391 kts 216°
2026-05-07 16:50 47.22097 2.08226 30811 ft 377 kts 216°
2026-05-07 16:50 47.19948 2.06101 30138 ft 378 kts 216°
2026-05-07 16:50 47.17703 2.03873 29305 ft 395 kts 216°
2026-05-07 16:51 47.15400 2.01583 29037 ft 414 kts 216°
2026-05-07 16:51 47.12968 1.99167 28995 ft 426 kts 215°
2026-05-07 16:51 47.10492 1.96711 29005 ft 430 kts 215°
2026-05-07 16:52 47.05525 1.91802 29008 ft 432 kts 215°
2026-05-07 16:52 47.00553 1.86895 29004 ft 432 kts 215°
2026-05-07 16:53 46.95549 1.81970 29004 ft 432 kts 215°
2026-05-07 16:53 46.90321 1.77741 28995 ft 433 kts 207°
2026-05-07 16:54 46.84899 1.73930 28993 ft 429 kts 207°
2026-05-07 16:54 46.79543 1.70162 28996 ft 428 kts 207°
2026-05-07 16:55 46.74181 1.66396 28996 ft 428 kts 207°
2026-05-07 16:55 46.68814 1.62642 28992 ft 428 kts 207°
2026-05-07 16:56 46.63447 1.58905 28993 ft 429 kts 207°
2026-05-07 16:56 46.55369 1.53284 28984 ft 429 kts 207°
2026-05-07 16:57 46.50010 1.49565 28985 ft 428 kts 206°
2026-05-07 16:57 46.44639 1.45848 28986 ft 428 kts 206°
2026-05-07 16:58 46.39240 1.42103 28988 ft 428 kts 207°
2026-05-07 16:58 46.33876 1.38379 28985 ft 428 kts 207°
2026-05-07 16:59 46.28531 1.34675 28983 ft 427 kts 206°
2026-05-07 16:59 46.23158 1.30958 28978 ft 427 kts 206°
2026-05-07 17:00 46.17800 1.27271 28979 ft 427 kts 206°
2026-05-07 17:00 46.12460 1.23601 28974 ft 427 kts 206°
2026-05-07 17:01 46.07084 1.19911 28976 ft 426 kts 206°
2026-05-07 17:01 46.01755 1.16262 28489 ft 424 kts 206°
2026-05-07 17:02 45.99127 1.14471 27689 ft 420 kts 206°
2026-05-07 17:02 45.96481 1.12669 26939 ft 415 kts 206°
2026-05-07 17:02 45.93902 1.10911 26168 ft 412 kts 206°
2026-05-07 17:02 45.91320 1.09151 25364 ft 410 kts 206°
2026-05-07 17:03 45.88766 1.07415 24594 ft 408 kts 206°
2026-05-07 17:03 45.86181 1.05730 23831 ft 406 kts 201°
2026-05-07 17:03 45.83492 1.04608 23001 ft 405 kts 192°
2026-05-07 17:03 45.80706 1.04183 22244 ft 402 kts 182°
2026-05-07 17:04 45.77915 1.04454 21509 ft 400 kts 172°
2026-05-07 17:04 45.75214 1.05373 20796 ft 399 kts 164°
2026-05-07 17:04 45.72600 1.06532 20093 ft 397 kts 164°
2026-05-07 17:04 45.69967 1.07696 19423 ft 395 kts 164°
2026-05-07 17:05 45.67325 1.08862 18757 ft 394 kts 164°
2026-05-07 17:05 45.64732 1.10006 18107 ft 392 kts 164°
2026-05-07 17:05 45.62126 1.11154 17470 ft 389 kts 164°
2026-05-07 17:05 45.59540 1.12295 16884 ft 385 kts 164°
2026-05-07 17:06 45.57017 1.13406 16335 ft 381 kts 164°
2026-05-07 17:06 45.54513 1.14508 15785 ft 377 kts 164°
2026-05-07 17:06 45.52006 1.15609 15224 ft 373 kts 164°
2026-05-07 17:06 45.49563 1.16678 14649 ft 369 kts 164°
2026-05-07 17:07 45.47106 1.17750 14081 ft 366 kts 164°
2026-05-07 17:07 45.44692 1.18802 13442 ft 364 kts 164°
2026-05-07 17:07 45.42273 1.19859 12802 ft 361 kts 164°
2026-05-07 17:07 45.39869 1.20910 12160 ft 358 kts 163°
2026-05-07 17:08 45.37522 1.21933 11499 ft 356 kts 163°
2026-05-07 17:08 45.35118 1.22993 10828 ft 366 kts 163°
2026-05-07 17:08 45.32672 1.24083 10171 ft 366 kts 163°
2026-05-07 17:08 45.30305 1.25124 9801 ft 353 kts 163°
2026-05-07 17:09 45.28012 1.26199 9519 ft 338 kts 156°
2026-05-07 17:09 45.26019 1.27849 9253 ft 324 kts 147°
2026-05-07 17:09 45.24174 1.29527 8993 ft 313 kts 147°
2026-05-07 17:09 45.22371 1.31168 8839 ft 299 kts 147°
2026-05-07 17:10 45.20845 1.33012 8708 ft 286 kts 129°
2026-05-07 17:10 45.19730 1.35331 8575 ft 282 kts 121°
2026-05-07 17:10 45.18744 1.37700 8451 ft 281 kts 120°
2026-05-07 17:10 45.17758 1.40103 8155 ft 280 kts 120°
2026-05-07 17:11 45.16790 1.42469 7777 ft 278 kts 120°
2026-05-07 17:11 45.15818 1.44842 7382 ft 276 kts 120°
2026-05-07 17:11 45.14854 1.47190 6969 ft 275 kts 120°
2026-05-07 17:11 45.13903 1.49501 6542 ft 273 kts 120°
2026-05-07 17:12 45.12943 1.51832 6118 ft 271 kts 120°
2026-05-07 17:12 45.12003 1.54114 5684 ft 269 kts 120°
2026-05-07 17:12 45.11061 1.56403 5252 ft 268 kts 120°
2026-05-07 17:12 45.10138 1.58647 4830 ft 266 kts 120°
2026-05-07 17:13 45.09210 1.60911 4384 ft 264 kts 120°
2026-05-07 17:13 45.08306 1.63119 3981 ft 258 kts 120°
2026-05-07 17:13 45.07213 1.65042 3730 ft 242 kts 140°
2026-05-07 17:13 45.05791 1.66128 3636 ft 222 kts 164°
2026-05-07 17:14 45.04336 1.66339 3593 ft 208 kts 186°
2026-05-07 17:14 45.02959 1.65787 3553 ft 206 kts 207°
2026-05-07 17:14 45.01800 1.64660 3431 ft 202 kts 217°
2026-05-07 17:14 45.00687 1.63455 3221 ft 200 kts 218°
2026-05-07 17:15 44.99867 1.61902 2955 ft 199 kts 255°
2026-05-07 17:15 45.00070 1.60069 2709 ft 192 kts 300°
2026-05-07 17:15 45.00748 1.58503 2458 ft 181 kts 297°
2026-05-07 17:15 45.01252 1.56952 2231 ft 166 kts 295°
2026-05-07 17:16 45.01706 1.55537 1994 ft 149 kts 295°
2026-05-07 17:16 45.02119 1.54260 1789 ft 137 kts 295°
2026-05-07 17:16 45.02506 1.53069 1579 ft 133 kts 296°
2026-05-07 17:16 45.02895 1.51889 1411 ft 131 kts 296°
2026-05-07 17:17 45.03268 1.50732 1206 ft 129 kts 296°
2026-05-07 17:17 45.03642 1.49578 1041 ft 128 kts 297°
2026-05-07 17:17 45.03972 1.48571 1011 ft 84 kts 294°
2026-05-07 17:17 45.04111 1.48141 1015 ft 31 kts 297°
2026-05-07 17:18 45.04184 1.47961 1016 ft 9 kts 301°
2026-05-07 17:18 45.04175 1.47933 1017 ft 5 kts 214°
2026-05-07 17:18 45.04152 1.47981 1017 ft 10 kts 105°
2026-05-07 17:18 45.04120 1.48102 1015 ft 17 kts 115°
2026-05-07 17:19 45.04064 1.48273 1015 ft 22 kts 114°
2026-05-07 17:19 45.03995 1.48487 1011 ft 22 kts 114°
2026-05-07 17:19 45.03966 1.48583 1011 ft 8 kts 115°
2026-05-07 17:19 45.03940 1.48659 1011 ft 9 kts 114°
2026-05-07 17:20 45.03908 1.48757 1009 ft 13 kts 114°
2026-05-07 17:20 45.03886 1.48871 1008 ft 11 kts 74°
2026-05-07 17:20 45.03932 1.48918 1008 ft 5 kts 24°
2026-05-07 17:20 45.03966 1.48942 1008 ft 6 kts 34°
2026-05-07 17:21 45.03990 1.48999 1008 ft 7 kts 67°
2026-05-07 17:21 45.04012 1.49057 1007 ft 7 kts 42°
2026-05-07 17:21 45.04037 1.49059 1006 ft 2 kts 303°
2026-05-07 17:21 45.04035 1.49045 1007 ft 3 kts 250°
2026-05-07 17:22 45.04031 1.49030 1007 ft 0 kts 252°